Farmville, Virginia, United States (23901)
Lat: 37.30N, Lon: 78.39W
Wx Zone: VAZ060
Local Info
Past Weather Observations for Today

NOTE: This archive is for the closest National Weather Service station to Farmville. Information may differ from the station used for current weather conditions.

Click here for Long-term Archive

Time Weather Temperature Dewpoint Humidity Pressure Winds Precip Visibility
14:55
Clear
46°F / 8°C 16°F / -9°C 29% 30.27 in
(1025 mb)
NW 3.5 mph
(NW 6 kph)
- 10SM
14:35
Clear
45°F / 7°C 16°F / -9°C 31% 30.24 in
(1024 mb)
Calm - 10SM
14:15
Clear
46°F / 8°C 16°F / -9°C 29% 30.27 in
(1025 mb)
W 3.5 mph
(W 6 kph)
- 10SM
13:55
Clear
48°F / 9°C 18°F / -8°C 29% 30.27 in
(1025 mb)
N 6.9 mph
(N 11 kph)
- 10SM
13:35
Clear
46°F / 8°C 18°F / -8°C 32% 30.27 in
(1025 mb)
NW 3.5 mph
(NW 6 kph)
- 10SM
13:15
Clear
46°F / 8°C 19°F / -7°C 34% 30.27 in
(1025 mb)
NW 3.5 mph
(NW 6 kph)
- 10SM
12:55
Clear
46°F / 8°C 18°F / -8°C 32% 30.27 in
(1025 mb)
W 3.5 mph
(W 6 kph)
- 10SM
12:35
Clear
46°F / 8°C 19°F / -7°C 34% 30.27 in
(1025 mb)
Calm - 10SM
12:15
Clear
45°F / 7°C 18°F / -8°C 34% 30.3 in
(1026 mb)
NNW 5.8 mph
(NNW 9 kph)
- 10SM
11:55
Clear
45°F / 7°C 19°F / -7°C 37% 30.3 in
(1026 mb)
N 4.6 mph
(N 7 kph)
- 10SM
11:35
Clear
45°F / 7°C 21°F / -6°C 39% 30.33 in
(1027 mb)
W 4.6 mph
(W 7 kph)
- 10SM
11:15
Clear
43°F / 6°C 19°F / -7°C 39% 30.33 in
(1027 mb)
N 4.6 mph
(N 7 kph)
- 10SM
10:55
Clear
43°F / 6°C 19°F / -7°C 39% 30.33 in
(1027 mb)
N 6.9 mph
(N 11 kph)
- 10SM
10:35
Clear
43°F / 6°C 21°F / -6°C 42% 30.33 in
(1027 mb)
N 4.6 mph
(N 7 kph)
- 10SM
10:15
Clear
41°F / 5°C 21°F / -6°C 45% 30.33 in
(1027 mb)
N 5.8 mph
(N 9 kph)
- 10SM
09:55
Clear
41°F / 5°C 23°F / -5°C 49% 30.36 in
(1028 mb)
N 6.9 mph
(N 11 kph)
- 10SM
09:35
Clear
41°F / 5°C 23°F / -5°C 49% 30.33 in
(1027 mb)
N 4.6 mph
(N 7 kph)
- 10SM
09:15
Clear
41°F / 5°C 23°F / -5°C 49% 30.33 in
(1027 mb)
NW 6.9 mph
(NW 11 kph)
- 10SM
08:55
Clear
39°F / 4°C 27°F / -3°C 61% 30.33 in
(1027 mb)
N 4.6 mph
(N 7 kph)
- 10SM
08:35
Clear
36°F / 2°C 23°F / -5°C 60% 30.33 in
(1027 mb)
Calm - 10SM
08:15
Clear
34°F / 1°C 23°F / -5°C 65% 30.33 in
(1027 mb)
SSW 3.5 mph
(SSW 6 kph)
- 10SM
07:55
Clear
32°F / 0°C 23°F / -5°C 69% 30.3 in
(1026 mb)
SSW 3.5 mph
(SSW 6 kph)
- 10SM
07:35
Clear
30°F / -1°C 23°F / -5°C 75% 30.3 in
(1026 mb)
SSW 3.5 mph
(SSW 6 kph)
- 10SM
07:15
Clear
30°F / -1°C 21°F / -6°C 69% 30.3 in
(1026 mb)
Calm - 10SM
06:55
Clear
30°F / -1°C 21°F / -6°C 69% 30.3 in
(1026 mb)
SSW 3.5 mph
(SSW 6 kph)
- 10SM
06:35
Clear
28°F / -2°C 21°F / -6°C 74% 30.3 in
(1026 mb)
SSW 3.5 mph
(SSW 6 kph)
- 10SM
06:15
Clear
28°F / -2°C 21°F / -6°C 74% 30.3 in
(1026 mb)
SSW 3.5 mph
(SSW 6 kph)
- 10SM
05:55
Clear
30°F / -1°C 21°F / -6°C 69% 30.27 in
(1025 mb)
SSW 3.5 mph
(SSW 6 kph)
- 10SM
05:35
Clear
30°F / -1°C 21°F / -6°C 69% 30.27 in
(1025 mb)
Calm - 10SM
05:15
Clear
30°F / -1°C 21°F / -6°C 69% 30.27 in
(1025 mb)
Calm - 10SM
04:55
Clear
30°F / -1°C 21°F / -6°C 69% 30.27 in
(1025 mb)
Calm - 10SM
04:35
Clear
28°F / -2°C 21°F / -6°C 74% 30.27 in
(1025 mb)
Calm - 10SM
04:15
Clear
28°F / -2°C 21°F / -6°C 74% 30.27 in
(1025 mb)
Calm - 10SM
03:55
Clear
30°F / -1°C 21°F / -6°C 69% 30.24 in
(1024 mb)
Calm - 10SM
03:35
Clear
30°F / -1°C 23°F / -5°C 75% 30.24 in
(1024 mb)
SSW 3.5 mph
(SSW 6 kph)
- 10SM
03:15
Clear
32°F / 0°C 23°F / -5°C 69% 30.24 in
(1024 mb)
Calm - 10SM
02:55
Clear
32°F / 0°C 23°F / -5°C 69% 30.24 in
(1024 mb)
W 3.5 mph
(W 6 kph)
- 10SM
02:35
Clear
32°F / 0°C 21°F / -6°C 64% 30.24 in
(1024 mb)
Calm - 10SM
02:15
Clear
32°F / 0°C 23°F / -5°C 69% 30.24 in
(1024 mb)
SSW 3.5 mph
(SSW 6 kph)
- 10SM
01:55
Clear
34°F / 1°C 23°F / -5°C 65% 30.24 in
(1024 mb)
Calm - 10SM
01:35
Partly Cloudy
34°F / 1°C 23°F / -5°C 65% 30.21 in
(1023 mb)
WNW 3.5 mph
(WNW 6 kph)
- 10SM
01:15
Partly Cloudy
34°F / 1°C 25°F / -4°C 70% 30.21 in
(1023 mb)
W 3.5 mph
(W 6 kph)
- 10SM
00:55
Clear
34°F / 1°C 25°F / -4°C 70% 30.21 in
(1023 mb)
W 3.5 mph
(W 6 kph)
- 10SM
00:35
Clear
34°F / 1°C 25°F / -4°C 70% 30.21 in
(1023 mb)
WNW 3.5 mph
(WNW 6 kph)
- 10SM
00:15
Clear
34°F / 1°C 23°F / -5°C 65% 30.21 in
(1023 mb)
Calm - 10SM
Time Weather Temperature Dewpoint Humidity Pressure Winds Precip Visibility


Weather for websites

WeatherForYou.com, LLC is not responsible for any damages or problems caused by this service. Current weather conditions are obtained from the closest station including government and personal stations which may have varying degrees of accuracy. Weather forecasts are derived from the NOAA NDFD. Like all things, this site belongs to Jesus Christ... He just trusts me to maintain it. If you have any questions or comments email webmaster@weatherforyou.com

Copyright © 2014, WeatherForYou.com LLC. All rights reserved.